Location: Street
(51.1247°N, 2.7429°W)
Time: 05:46:18
(UTC+01:00)

CAS-6 - Pass Details

Date: 03 April 2023
Orbit: 610 x 632 km, 97.9° (Epoch: 29 May)

Event Time Altitude Azimuth Distance (km) Brightness Sun altitude
Exits shadow 00:32:35 16° 299° (WNW) 1,631 ? -33.0°
Drops below altitude 10° 00:34:07 10° 317° (NW) 2,008 ? -33.1°
Sets 00:36:51 0° 334° (NNW) 2,925 ? -33.2°
